Tracking 19489 objects as of 23-Jan-2019
HD Live streaming from Space Station
objects crossing your sky now

FENGYUN 1C DEB

Track FENGYUN 1C DEB now!
10-day predictions


NORAD ID: 31710
Int'l Code: 1999-025CDH
Perigee: 477.6 km
Apogee: 606.4 km
Inclination: 99.0 °
Period: 95.3 minutes
Semi major axis: 6913 km
RCS: 0.0102 m2 (small)
Launch date: May 10, 1999
Source: People's Republic of China (PRC)
Launch site: Taiyaun Space Center, China (TSC)

Note: This is SATELLITE DEBRIS
aabbcc
Your satellite tracking list
Your tracking list is empty




NASA's NSSDC Master Catalog

Two Line Element Set (TLE):
1 31710U 99025CDH 19021.75614017 +.00003361 +00000-0 +18977-3 0  9999
2 31710 098.9998 215.7340 0093124 230.7339 128.5597 15.10435562630170
Source of the keplerian elements: AFSPC